AAL1327 KBOS-KPHL

Flight info

Callsign AAL1327
Flight time 1h 2m
Altitude 36000
Route SSOXS7 SSOXS Q167 RIFLE Q439 BRIGS JIIMS4
Aircraft A321/M-SDE3FGHIRWY/LB1

Departure

Time 2026-05-03 23:35
Airport Boston Logan International Airport (KBOS)

Arrival

Time 2026-05-04 00:37
Airport Philadelphia International Airport (KPHL)
Time Latitude Longitude Altitude Speed Heading
2026-05-03 23:13 42.35981 -71.01789 25 ft 0 kts 10°
2026-05-03 23:22 42.35955 -71.01796 27 ft 4 kts
2026-05-03 23:22 42.35941 -71.01796 29 ft 2 kts 358°
2026-05-03 23:22 42.35923 -71.01798 29 ft 4 kts 61°
2026-05-03 23:23 42.35924 -71.01823 30 ft 4 kts 111°
2026-05-03 23:23 42.35930 -71.01844 28 ft 1 kts 111°
2026-05-03 23:26 42.35929 -71.01843 26 ft 1 kts 111°
2026-05-03 23:27 42.35924 -71.01825 28 ft 3 kts 111°
2026-05-03 23:27 42.35916 -71.01786 29 ft 5 kts 104°
2026-05-03 23:27 42.35906 -71.01728 25 ft 7 kts 102°
2026-05-03 23:27 42.35895 -71.01650 25 ft 9 kts 99°
2026-05-03 23:28 42.35900 -71.01561 29 ft 10 kts 52°
2026-05-03 23:28 42.35968 -71.01514 28 ft 12 kts 21°
2026-05-03 23:28 42.36050 -71.01471 27 ft 13 kts 21°
2026-05-03 23:28 42.36142 -71.01426 25 ft 15 kts 20°
2026-05-03 23:29 42.36241 -71.01379 28 ft 14 kts 18°
2026-05-03 23:29 42.36308 -71.01348 27 ft 2 kts 19°
2026-05-03 23:29 42.36322 -71.01329 28 ft 4 kts 58°
2026-05-03 23:29 42.36314 -71.01273 27 ft 8 kts 115°
2026-05-03 23:30 42.36282 -71.01194 25 ft 11 kts 121°
2026-05-03 23:30 42.36243 -71.01096 28 ft 13 kts 114°
2026-05-03 23:30 42.36205 -71.00980 28 ft 14 kts 115°
2026-05-03 23:30 42.36165 -71.00862 27 ft 9 kts 114°
2026-05-03 23:31 42.36152 -71.00820 28 ft 6 kts 113°
2026-05-03 23:31 42.36122 -71.00726 26 ft 14 kts 112°
2026-05-03 23:31 42.36088 -71.00591 28 ft 16 kts 109°
2026-05-03 23:31 42.36050 -71.00440 27 ft 17 kts 108°
2026-05-03 23:32 42.36009 -71.00281 27 ft 18 kts 109°
2026-05-03 23:32 42.35972 -71.00144 26 ft 11 kts 110°
2026-05-03 23:32 42.35952 -71.00057 27 ft 1 kts 104°
2026-05-03 23:32 42.35944 -71.00046 28 ft 3 kts 139°
2026-05-03 23:33 42.35901 -71.00007 25 ft 10 kts 141°
2026-05-03 23:33 42.35847 -70.99941 27 ft 11 kts 135°
2026-05-03 23:33 42.35789 -70.99860 25 ft 13 kts 134°
2026-05-03 23:33 42.35722 -70.99770 27 ft 14 kts 135°
2026-05-03 23:34 42.35648 -70.99670 29 ft 16 kts 135°
2026-05-03 23:34 42.35568 -70.99561 29 ft 17 kts 134°
2026-05-03 23:34 42.35496 -70.99458 27 ft 15 kts 116°
2026-05-03 23:34 42.35504 -70.99316 29 ft 15 kts 77°
2026-05-03 23:35 42.35564 -70.99296 27 ft 12 kts 316°
2026-05-03 23:35 42.35793 -70.99605 26 ft 85 kts 315°
2026-05-03 23:35 42.36375 -71.00385 32 ft 146 kts 315°
2026-05-03 23:35 42.37120 -71.01330 765 ft 141 kts 316°
2026-05-03 23:36 42.37836 -71.02213 1576 ft 140 kts 312°
2026-05-03 23:36 42.38485 -71.03247 2177 ft 152 kts 298°
2026-05-03 23:36 42.39038 -71.04577 2528 ft 173 kts 298°
2026-05-03 23:36 42.39666 -71.06071 2791 ft 193 kts 298°
2026-05-03 23:37 42.40376 -71.07751 2963 ft 218 kts 298°
2026-05-03 23:37 42.40828 -71.09792 3348 ft 240 kts 267°
2026-05-03 23:37 42.40300 -71.11970 4145 ft 250 kts 242°
2026-05-03 23:37 42.39238 -71.13887 4791 ft 257 kts 234°
2026-05-03 23:38 42.38151 -71.15794 4969 ft 255 kts 237°
2026-05-03 23:38 42.37055 -71.17681 4999 ft 257 kts 228°
2026-05-03 23:38 42.35555 -71.19055 5200 ft 270 kts 206°
2026-05-03 23:38 42.33726 -71.19556 6175 ft 277 kts 185°
2026-05-03 23:39 42.31805 -71.19092 7088 ft 286 kts 165°
2026-05-03 23:39 42.29917 -71.18188 7974 ft 289 kts 164°
2026-05-03 23:39 42.28009 -71.17248 8817 ft 293 kts 164°
2026-05-03 23:39 42.26101 -71.16212 9682 ft 300 kts 156°
2026-05-03 23:40 42.24339 -71.14639 10368 ft 312 kts 143°
2026-05-03 23:40 42.22627 -71.12660 10628 ft 336 kts 142°
2026-05-03 23:40 42.20808 -71.10531 10943 ft 355 kts 142°
2026-05-03 23:40 42.19358 -71.08828 11421 ft 361 kts 142°
2026-05-03 23:41 42.18425 -71.07728 11642 ft 360 kts 141°
2026-05-03 23:41 42.16526 -71.05470 12020 ft 367 kts 142°
2026-05-03 23:41 42.15337 -71.04096 12480 ft 368 kts 145°
2026-05-03 23:41 42.13672 -71.02461 12798 ft 368 kts 148°
2026-05-03 23:42 42.11559 -71.00471 13414 ft 373 kts 149°
2026-05-03 23:42 42.09414 -70.98485 14083 ft 377 kts 149°
2026-05-03 23:42 42.07230 -70.96473 14729 ft 381 kts 150°
2026-05-03 23:42 42.05916 -70.95263 15114 ft 384 kts 150°
2026-05-03 23:43 42.04178 -70.93653 15393 ft 387 kts 149°
2026-05-03 23:43 42.01974 -70.91608 16026 ft 391 kts 149°
2026-05-03 23:43 41.99727 -70.89523 16686 ft 395 kts 149°
2026-05-03 23:43 41.97454 -70.87406 17329 ft 399 kts 149°
2026-05-03 23:44 41.95158 -70.85263 17976 ft 404 kts 149°
2026-05-03 23:44 41.92838 -70.83097 18547 ft 408 kts 149°
2026-05-03 23:44 41.90491 -70.80923 19114 ft 411 kts 152°
2026-05-03 23:44 41.89602 -70.80186 19284 ft 407 kts 155°
2026-05-03 23:45 41.87020 -70.78680 19602 ft 403 kts 169°
2026-05-03 23:45 41.84284 -70.77971 20186 ft 398 kts 181°
2026-05-03 23:45 41.81540 -70.77998 20769 ft 392 kts 193°
2026-05-03 23:45 41.78894 -70.78713 21367 ft 386 kts 204°
2026-05-03 23:46 41.76427 -70.80066 21962 ft 381 kts 214°
2026-05-03 23:46 41.74109 -70.81801 22523 ft 383 kts 216°
2026-05-03 23:46 41.71816 -70.83532 23072 ft 386 kts 216°
2026-05-03 23:46 41.69424 -70.85336 23591 ft 389 kts 216°
2026-05-03 23:47 41.67056 -70.87115 24045 ft 392 kts 216°
2026-05-03 23:47 41.64669 -70.88902 24502 ft 394 kts 216°
2026-05-03 23:47 41.62299 -70.90671 24964 ft 396 kts 216°
2026-05-03 23:47 41.59854 -70.92495 25433 ft 398 kts 216°
2026-05-03 23:48 41.57477 -70.94295 25876 ft 398 kts 218°
2026-05-03 23:48 41.55264 -70.96476 26302 ft 393 kts 227°
2026-05-03 23:48 41.53371 -70.99080 26731 ft 389 kts 236°
2026-05-03 23:48 41.51807 -71.02017 27148 ft 388 kts 241°
2026-05-03 23:49 41.50317 -71.05023 27587 ft 390 kts 240°
2026-05-03 23:49 41.48805 -71.08045 27998 ft 392 kts 240°
2026-05-03 23:49 41.47282 -71.11076 28410 ft 394 kts 240°
2026-05-03 23:49 41.45751 -71.14118 28818 ft 397 kts 240°
2026-05-03 23:50 41.44207 -71.17184 29204 ft 399 kts 240°
2026-05-03 23:50 41.43184 -71.19219 29443 ft 401 kts 240°
2026-05-03 23:50 41.41101 -71.23357 29941 ft 404 kts 240°
2026-05-03 23:50 41.39530 -71.26467 30259 ft 406 kts 240°
2026-05-03 23:51 41.37949 -71.29595 30564 ft 408 kts 240°
2026-05-03 23:51 41.36358 -71.32743 30856 ft 411 kts 240°
2026-05-03 23:51 41.34761 -71.35900 31213 ft 411 kts 240°
2026-05-03 23:51 41.33168 -71.39058 31635 ft 410 kts 240°
2026-05-03 23:52 41.31581 -71.42206 32047 ft 410 kts 240°
2026-05-03 23:52 41.29990 -71.45360 32426 ft 410 kts 239°
2026-05-03 23:52 41.28422 -71.48465 32807 ft 410 kts 239°
2026-05-03 23:52 41.26830 -71.51610 33201 ft 409 kts 239°
2026-05-03 23:53 41.25238 -71.54750 33568 ft 409 kts 239°
2026-05-03 23:53 41.23647 -71.57880 33914 ft 410 kts 239°
2026-05-03 23:53 41.22049 -71.61017 34221 ft 409 kts 239°
2026-05-03 23:53 41.20455 -71.64141 34531 ft 409 kts 239°
2026-05-03 23:54 41.18861 -71.67268 34834 ft 408 kts 239°
2026-05-03 23:54 41.17268 -71.70387 35139 ft 408 kts 239°
2026-05-03 23:54 41.15673 -71.73503 35445 ft 408 kts 239°
2026-05-03 23:54 41.14085 -71.76609 35774 ft 407 kts 239°
2026-05-03 23:55 41.12497 -71.79723 35912 ft 406 kts 239°
2026-05-03 23:55 41.10927 -71.82806 35936 ft 402 kts 239°
2026-05-03 23:55 41.07822 -71.88917 35932 ft 399 kts 239°
2026-05-03 23:56 41.04714 -71.95026 35931 ft 400 kts 239°
2026-05-03 23:56 41.02057 -72.01431 35935 ft 396 kts 248°
2026-05-03 23:57 40.99732 -72.08058 35934 ft 397 kts 248°
2026-05-03 23:57 40.97412 -72.14641 35942 ft 398 kts 248°
2026-05-03 23:58 40.95062 -72.21286 35951 ft 398 kts 248°
2026-05-03 23:58 40.92700 -72.27925 35948 ft 399 kts 247°
2026-05-03 23:59 40.89475 -72.33918 35950 ft 407 kts 229°
2026-05-03 23:59 40.85437 -72.39182 35941 ft 408 kts 230°
2026-05-04 00:00 40.81404 -72.44446 35954 ft 408 kts 230°
2026-05-04 00:00 40.77109 -72.49404 35950 ft 412 kts 225°
2026-05-04 00:01 40.72682 -72.54210 35953 ft 412 kts 225°
2026-05-04 00:01 40.68338 -72.59054 35952 ft 409 kts 230°
2026-05-04 00:02 40.64312 -72.64333 35962 ft 408 kts 230°
2026-05-04 00:02 40.60286 -72.69605 35964 ft 408 kts 230°
2026-05-04 00:03 40.56256 -72.74870 35960 ft 408 kts 230°
2026-05-04 00:03 40.52228 -72.80110 35964 ft 407 kts 230°
2026-05-04 00:04 40.48098 -72.85228 35965 ft 409 kts 228°
2026-05-04 00:04 40.43872 -72.90241 35971 ft 409 kts 227°
2026-05-04 00:05 40.39664 -72.95251 35979 ft 408 kts 228°
2026-05-04 00:05 40.35478 -73.00279 35977 ft 408 kts 228°
2026-05-04 00:06 40.31292 -73.05303 35982 ft 407 kts 228°
2026-05-04 00:06 40.27119 -73.10313 35977 ft 407 kts 228°
2026-05-04 00:07 40.22942 -73.15312 35986 ft 407 kts 228°
2026-05-04 00:07 40.18801 -73.20276 35987 ft 406 kts 228°
2026-05-04 00:08 40.14620 -73.25255 35992 ft 406 kts 228°
2026-05-04 00:08 40.10443 -73.30217 35997 ft 405 kts 228°
2026-05-04 00:09 40.06276 -73.35174 36004 ft 405 kts 228°
2026-05-04 00:09 40.02110 -73.40120 36012 ft 405 kts 228°
2026-05-04 00:10 39.97948 -73.45056 36020 ft 404 kts 228°
2026-05-04 00:10 39.93776 -73.49977 35928 ft 405 kts 228°
2026-05-04 00:11 39.92396 -73.51604 35767 ft 403 kts 228°
2026-05-04 00:11 39.90350 -73.54083 35525 ft 400 kts 232°
2026-05-04 00:11 39.88543 -73.56812 35288 ft 396 kts 236°
2026-05-04 00:11 39.86809 -73.59591 35052 ft 396 kts 236°
2026-05-04 00:12 39.85065 -73.62373 34821 ft 396 kts 236°
2026-05-04 00:12 39.83317 -73.65144 34593 ft 397 kts 236°
2026-05-04 00:12 39.81558 -73.67925 33806 ft 400 kts 236°
2026-05-04 00:12 39.79800 -73.70704 32659 ft 394 kts 237°
2026-05-04 00:13 39.78074 -73.73426 31585 ft 387 kts 237°
2026-05-04 00:13 39.76382 -73.76097 30572 ft 379 kts 237°
2026-05-04 00:13 39.74722 -73.78718 29504 ft 371 kts 237°
2026-05-04 00:13 39.73099 -73.81283 28388 ft 364 kts 237°
2026-05-04 00:14 39.71509 -73.83796 27341 ft 356 kts 237°
2026-05-04 00:14 39.69949 -73.86254 26346 ft 349 kts 237°
2026-05-04 00:14 39.68416 -73.88662 25408 ft 344 kts 237°
2026-05-04 00:14 39.66906 -73.91037 24511 ft 338 kts 237°
2026-05-04 00:15 39.65422 -73.93371 23652 ft 332 kts 236°
2026-05-04 00:15 39.63962 -73.95659 22682 ft 326 kts 236°
2026-05-04 00:15 39.62529 -73.97902 21744 ft 320 kts 236°
2026-05-04 00:15 39.61127 -74.00105 20855 ft 314 kts 236°
2026-05-04 00:16 39.59748 -74.02274 20008 ft 311 kts 236°
2026-05-04 00:16 39.58351 -74.04478 19172 ft 321 kts 236°
2026-05-04 00:16 39.56914 -74.06747 18326 ft 328 kts 236°
2026-05-04 00:16 39.55476 -74.09007 17387 ft 329 kts 236°
2026-05-04 00:17 39.54030 -74.11305 16459 ft 328 kts 239°
2026-05-04 00:17 39.52955 -74.13861 15556 ft 320 kts 253°
2026-05-04 00:17 39.52458 -74.16630 14716 ft 314 kts 268°
2026-05-04 00:17 39.52460 -74.19435 13913 ft 311 kts 274°
2026-05-04 00:18 39.52521 -74.22198 13398 ft 300 kts 274°
2026-05-04 00:18 39.52575 -74.24869 13200 ft 295 kts 274°
2026-05-04 00:18 39.52625 -74.27519 13001 ft 294 kts 274°
2026-05-04 00:18 39.52675 -74.30164 12799 ft 294 kts 274°
2026-05-04 00:19 39.52726 -74.32807 12606 ft 294 kts 274°
2026-05-04 00:19 39.52778 -74.35450 12409 ft 293 kts 274°
2026-05-04 00:19 39.52826 -74.38088 12214 ft 293 kts 274°
2026-05-04 00:19 39.52873 -74.40724 12013 ft 293 kts 274°
2026-05-04 00:20 39.52918 -74.43359 11819 ft 292 kts 274°
2026-05-04 00:20 39.52963 -74.45988 11623 ft 292 kts 274°
2026-05-04 00:20 39.53009 -74.48619 11430 ft 292 kts 275°
2026-05-04 00:20 39.53055 -74.51246 11235 ft 292 kts 275°
2026-05-04 00:21 39.53101 -74.53866 11037 ft 291 kts 275°
2026-05-04 00:21 39.53145 -74.56487 10845 ft 291 kts 275°
2026-05-04 00:21 39.53188 -74.59109 10648 ft 291 kts 275°
2026-05-04 00:21 39.53230 -74.61731 10452 ft 291 kts 275°
2026-05-04 00:22 39.53271 -74.64315 10260 ft 289 kts 275°
2026-05-04 00:22 39.53307 -74.66890 10046 ft 277 kts 275°
2026-05-04 00:22 39.53340 -74.69321 9827 ft 270 kts 275°
2026-05-04 00:22 39.53374 -74.71741 9687 ft 269 kts 275°
2026-05-04 00:23 39.53412 -74.74160 9564 ft 268 kts 275°
2026-05-04 00:23 39.53452 -74.76574 9464 ft 268 kts 275°
2026-05-04 00:23 39.53494 -74.78981 9295 ft 267 kts 275°
2026-05-04 00:23 39.53533 -74.81382 9113 ft 266 kts 275°
2026-05-04 00:24 39.53570 -74.83763 8931 ft 264 kts 275°
2026-05-04 00:24 39.53605 -74.86140 8752 ft 263 kts 275°
2026-05-04 00:24 39.53641 -74.88504 8573 ft 262 kts 275°
2026-05-04 00:24 39.53676 -74.90863 8393 ft 261 kts 275°
2026-05-04 00:25 39.53716 -74.93211 8211 ft 260 kts 276°
2026-05-04 00:25 39.54070 -74.95470 8039 ft 254 kts 293°
2026-05-04 00:25 39.54930 -74.97445 7871 ft 252 kts 309°
2026-05-04 00:25 39.56203 -74.98990 7693 ft 252 kts 323°
2026-05-04 00:26 39.57574 -75.00255 7526 ft 252 kts 323°
2026-05-04 00:26 39.59001 -75.01573 7347 ft 251 kts 323°
2026-05-04 00:26 39.60420 -75.02892 7176 ft 251 kts 322°
2026-05-04 00:26 39.61837 -75.04214 7002 ft 250 kts 322°
2026-05-04 00:27 39.63250 -75.05532 6830 ft 250 kts 322°
2026-05-04 00:27 39.64657 -75.06844 6649 ft 249 kts 322°
2026-05-04 00:27 39.66093 -75.08087 6485 ft 250 kts 330°
2026-05-04 00:27 39.67750 -75.08805 6300 ft 254 kts 347°
2026-05-04 00:28 39.69509 -75.08829 6123 ft 260 kts
2026-05-04 00:28 39.71317 -75.08489 5782 ft 261 kts
2026-05-04 00:28 39.73000 -75.07650 5437 ft 266 kts 25°
2026-05-04 00:28 39.74439 -75.06164 5285 ft 264 kts 43°
2026-05-04 00:29 39.75638 -75.04438 5200 ft 250 kts 43°
2026-05-04 00:29 39.76785 -75.02796 4965 ft 241 kts 43°
2026-05-04 00:29 39.77913 -75.01190 4621 ft 240 kts 43°
2026-05-04 00:29 39.79036 -74.99598 4241 ft 238 kts 43°
2026-05-04 00:30 39.80195 -74.98076 3849 ft 233 kts 31°
2026-05-04 00:30 39.81641 -74.97271 3470 ft 224 kts
2026-05-04 00:30 39.83149 -74.96923 3265 ft 214 kts
2026-05-04 00:30 39.84584 -74.96654 3129 ft 203 kts
2026-05-04 00:31 39.85986 -74.96412 3046 ft 203 kts 359°
2026-05-04 00:31 39.87388 -74.96407 2990 ft 201 kts 353°
2026-05-04 00:31 39.88748 -74.96681 3001 ft 199 kts 338°
2026-05-04 00:31 39.89900 -74.97462 3001 ft 174 kts 320°
2026-05-04 00:32 39.90693 -74.98490 2994 ft 154 kts 305°
2026-05-04 00:32 39.91199 -74.99651 2998 ft 144 kts 291°
2026-05-04 00:32 39.91455 -75.00888 3005 ft 141 kts 279°
2026-05-04 00:32 39.91469 -75.02160 3027 ft 140 kts 267°
2026-05-04 00:33 39.91260 -75.03418 2917 ft 143 kts 260°
2026-05-04 00:33 39.90769 -75.05901 2606 ft 135 kts 259°
2026-05-04 00:33 39.90539 -75.07065 2420 ft 130 kts 259°
2026-05-04 00:34 39.90314 -75.08202 2252 ft 129 kts 259°
2026-05-04 00:34 39.90091 -75.09331 2079 ft 129 kts 260°
2026-05-04 00:34 39.89868 -75.10462 1900 ft 129 kts 260°
2026-05-04 00:34 39.89644 -75.11594 1724 ft 129 kts 259°
2026-05-04 00:35 39.89419 -75.12729 1547 ft 129 kts 259°
2026-05-04 00:35 39.89194 -75.13866 1367 ft 131 kts 258°
2026-05-04 00:35 39.88967 -75.15009 1196 ft 131 kts 258°
2026-05-04 00:35 39.88740 -75.16153 1014 ft 131 kts 258°
2026-05-04 00:36 39.88518 -75.17302 796 ft 129 kts 257°
2026-05-04 00:36 39.88303 -75.18436 716 ft 130 kts 257°
2026-05-04 00:36 39.88069 -75.19575 504 ft 130 kts 254°
2026-05-04 00:36 39.87834 -75.20707 325 ft 128 kts 256°
2026-05-04 00:37 39.87614 -75.21821 138 ft 129 kts 257°
2026-05-04 00:37 39.87407 -75.22862 46 ft 126 kts 255°
2026-05-04 00:37 39.87214 -75.23824 23 ft 89 kts 256°
2026-05-04 00:37 39.87107 -75.24356 24 ft 46 kts 256°
2026-05-04 00:38 39.87046 -75.24704 21 ft 27 kts 265°
2026-05-04 00:38 39.87116 -75.24834 22 ft 6 kts 340°
2026-05-04 00:38 39.87162 -75.24849 24 ft 8 kts 352°
2026-05-04 00:38 39.87206 -75.24813 22 ft 9 kts 63°
2026-05-04 00:39 39.87221 -75.24729 22 ft 10 kts 75°
2026-05-04 00:39 39.87240 -75.24635 22 ft 11 kts 75°
2026-05-04 00:39 39.87247 -75.24601 22 ft 1 kts 75°
2026-05-04 00:39 39.87252 -75.24578 22 ft 4 kts 72°
2026-05-04 00:40 39.87264 -75.24557 25 ft 5 kts 45°
2026-05-04 00:40 39.87316 -75.24554 22 ft 7 kts 345°
2026-05-04 00:40 39.87347 -75.24579 22 ft 1 kts 293°
2026-05-04 00:40 39.87347 -75.24596 25 ft 3 kts 270°
2026-05-04 00:41 39.87348 -75.24632 22 ft 5 kts 272°
2026-05-04 00:41 39.87349 -75.24656 22 ft 2 kts 272°
2026-05-04 00:41 39.87349 -75.24666 22 ft 0 kts 272°